Dades meteomassalio
Diari Summary for Juny 15, 2017 Units:  Metric    English   Both
« Previous Day
Next Day »
Diari Semanal Mensual Anual Personalitzat
  Maxima: Minima: Mijana:
Temperatura: -17.8 °C -7.2 °C -2.4 °C
Rosada: -17.8 °C -10.4 °C -9.6 °C
Humitat: Humidity % 29 % 47 %
Velocitat del vent: 0 km/h 0 km/h 4.5 km/h
Racha vent: 0 km/h - -
Vent:- - SW
Pressio: 0 hPa 34235.8 hPa -
Pluja: 0 mm    
Historical Graphs
 
 
Tabular Data for Juny 15, 2017
Time Temperature Dew Point Pressure Wind Wind Speed Wind Gust Humidity Rainfall Rate (Hourly) solar Conditions
-17.8 °C -17.8 °C 0 hPa Calm     Humidity % 0 mm SolarRadiationWatts/m^2 W/m2 Conditions
00:04 -3.4 °C -10.2 °C 34235.8 hPa Calm     47 % 0 mm 0.0 W/m2 CLR
00:09 -3.6 °C -10.3 °C 34246 hPa Calm     47 % 0 mm 0.0 W/m2 CLR
00:14 -3.7 °C -10.4 °C 34246 hPa Calm     47 % 0 mm 0.0 W/m2 CLR
00:19 -3.7 °C -10.4 °C 34246 hPa Calm     47 % 0 mm 0.0 W/m2 CLR
00:24 -3.7 °C -10.1 °C 34246 hPa Calm     49 % 0 mm 0.0 W/m2 CLR
00:29 -3.9 °C -10.2 °C 34246 hPa Calm     49 % 0 mm 0.0 W/m2 CLR
00:34 -4 °C -10.3 °C 34256.2 hPa Calm     49 % 0 mm 0.0 W/m2 CLR
00:39 -4.1 °C -10.3 °C 34256.2 hPa Calm     50 % 0 mm 0.0 W/m2 CLR
00:44 -4.2 °C -10.3 °C 34256.2 hPa Calm     50 % 0 mm 0.0 W/m2 CLR
00:49 -4.2 °C -10.4 °C 34256.2 hPa Calm     50 % 0 mm 0.0 W/m2 CLR
00:54 -4.2 °C -10.3 °C 34256.2 hPa Calm     50 % 0 mm 0.0 W/m2 CLR
00:59 -4.2 °C -10.3 °C 34256.2 hPa Calm     50 % 0 mm 0.0 W/m2 CLR
01:04 -4.2 °C -10.2 °C 34256.2 hPa Calm     51 % 0 mm 0.0 W/m2 CLR
01:09 -4.2 °C -10.2 °C 34256.2 hPa Calm     51 % 0 mm 0.0 W/m2 CLR
01:14 -4.3 °C -10.2 °C 34256.2 hPa Calm     51 % 0 mm 0.0 W/m2 CLR
01:19 -4.3 °C -10.4 °C 34256.2 hPa Calm     50 % 0 mm 0.0 W/m2 CLR
01:24 -4.3 °C -10.3 °C 34256.2 hPa Calm     51 % 0 mm 0.0 W/m2 CLR
01:29 -4.3 °C -10.3 °C 34256.2 hPa Calm     51 % 0 mm 0.0 W/m2 CLR
01:34 -4.3 °C -10.3 °C 34256.2 hPa Calm     51 % 0 mm 0.0 W/m2 CLR
01:39 -4.3 °C -10.3 °C 34256.2 hPa Calm     51 % 0 mm 0.0 W/m2 CLR
01:44 -4.4 °C -10.4 °C 34256.2 hPa Calm     51 % 0 mm 0.0 W/m2 CLR
01:49 -4.4 °C -10.2 °C 34256.2 hPa Calm     52 % 0 mm 0.0 W/m2 CLR
01:54 -4.6 °C -10.1 °C 34256.2 hPa Calm     54 % 0 mm 0.0 W/m2 CLR
01:59 -4.7 °C -10.2 °C 34256.2 hPa Calm     54 % 0 mm 0.0 W/m2 CLR
02:04 -4.8 °C -10.2 °C 34256.2 hPa Calm     54 % 0 mm 0.0 W/m2 CLR
02:09 -4.8 °C -10.2 °C 34256.2 hPa Calm     54 % 0 mm 0.0 W/m2 CLR
02:10 -4.8 °C -10.2 °C 34256.2 hPa Calm     54 % 0 mm 0.0 W/m2 CLR
02:15 -4.8 °C -10.3 °C 34256.2 hPa Calm     54 % 0 mm 0.0 W/m2 CLR
02:20 -4.9 °C -10.1 °C 34256.2 hPa Calm     56 % 0 mm 0.0 W/m2 CLR
02:25 -4.9 °C -10.2 °C 34256.2 hPa Calm     55 % 0 mm 0.0 W/m2 CLR
02:30 -5 °C -10.2 °C 34256.2 hPa Calm     56 % 0 mm 0.0 W/m2 CLR
02:35 -5.2 °C -10.2 °C 34256.2 hPa Calm     57 % 0 mm 0.0 W/m2 CLR
02:40 -5.4 °C -10.2 °C 34256.2 hPa Calm     58 % 0 mm 0.0 W/m2 CLR
02:45 -5.4 °C -10.3 °C 34256.2 hPa Calm     58 % 0 mm 0.0 W/m2 CLR
02:50 -5.5 °C -10.2 °C 34256.2 hPa Calm     59 % 0 mm 0.0 W/m2 CLR
02:55 -5.6 °C -10.2 °C 34256.2 hPa Calm     59 % 0 mm 0.0 W/m2 CLR
03:00 -5.6 °C -10.1 °C 34269.7 hPa Calm     60 % 0 mm 0.0 W/m2 CLR
03:05 -5.7 °C -10.2 °C 34256.2 hPa Calm     60 % 0 mm 0.0 W/m2 CLR
03:10 -5.7 °C -10.1 °C 34256.2 hPa Calm     61 % 0 mm 0.0 W/m2 CLR
03:15 -5.8 °C -10.2 °C 34256.2 hPa Calm     61 % 0 mm 0.0 W/m2 CLR
03:20 -5.9 °C -10.1 °C 34269.7 hPa Calm     62 % 0 mm 0.0 W/m2 CLR
03:25 -5.9 °C -10.2 °C 34269.7 hPa Calm     62 % 0 mm 0.0 W/m2 CLR
03:30 -6 °C -10.1 °C 34269.7 hPa Calm     63 % 0 mm 0.0 W/m2 CLR
03:35 -6 °C -9.9 °C 34269.7 hPa Calm     64 % 0 mm 0.0 W/m2 CLR
03:40 -6.1 °C -10 °C 34269.7 hPa Calm     64 % 0 mm 0.0 W/m2 CLR
03:45 -6.2 °C -10.1 °C 34269.7 hPa Calm     64 % 0 mm 0.0 W/m2 CLR
03:50 -6.2 °C -10.2 °C 34269.7 hPa Calm     64 % 0 mm 0.0 W/m2 CLR
03:55 -6.3 °C -10.1 °C 34269.7 hPa Calm     65 % 0 mm 0.0 W/m2 CLR
04:00 -6.3 °C -10.1 °C 34269.7 hPa Calm     65 % 0 mm 0.0 W/m2 CLR
04:05 -6.4 °C -10.2 °C 34269.7 hPa Calm     65 % 0 mm 0.0 W/m2 CLR
04:10 -6.5 °C -10.2 °C 34269.7 hPa Calm     66 % 0 mm 0.0 W/m2 CLR
04:15 -6.6 °C -10.2 °C 34269.7 hPa Calm     66 % 0 mm 0.0 W/m2 CLR
04:20 -6.6 °C -10.2 °C 34269.7 hPa Calm     66 % 0 mm 0.0 W/m2 CLR
04:25 -6.6 °C -10.1 °C 34279.9 hPa Calm     67 % 0 mm 0.0 W/m2 CLR
04:30 -6.6 °C -10.2 °C 34279.9 hPa Calm     67 % 0 mm 0.0 W/m2 CLR
04:35 -6.7 °C -10.2 °C 34279.9 hPa Calm     67 % 0 mm 0.0 W/m2 CLR
04:40 -6.8 °C -10.1 °C 34279.9 hPa Calm     68 % 0 mm 0.0 W/m2 CLR
04:45 -6.8 °C -10.2 °C 34279.9 hPa Calm     68 % 0 mm 0.0 W/m2 CLR
04:50 -6.8 °C -10.2 °C 34279.9 hPa Calm     68 % 0 mm 0.0 W/m2 CLR
04:55 -6.9 °C -10.2 °C 34293.4 hPa Calm     69 % 0 mm 0.0 W/m2 CLR
05:00 -6.9 °C -10.2 °C 34293.4 hPa Calm     69 % 0 mm 0.0 W/m2 CLR
05:05 -6.9 °C -10.2 °C 34293.4 hPa Calm     69 % 0 mm 0.0 W/m2 CLR
05:10 -6.9 °C -10.2 °C 34293.4 hPa Calm     69 % 0 mm 0.0 W/m2 CLR
05:15 -6.9 °C -10.2 °C 34293.4 hPa Calm     69 % 0 mm 0.0 W/m2 CLR
05:20 -6.9 °C -10.2 °C 34293.4 hPa Calm     69 % 0 mm 0.0 W/m2 CLR
05:25 -7 °C -10.2 °C 34303.6 hPa Calm     69 % 0 mm 0.0 W/m2 CLR
05:30 -7.1 °C -10.3 °C 34303.6 hPa Calm     69 % 0 mm 0.0 W/m2 CLR
05:35 -7.1 °C -10.2 °C 34303.6 hPa Calm     70 % 0 mm 0.0 W/m2 CLR
05:40 -7.1 °C -10.2 °C 34303.6 hPa Calm     70 % 0 mm 0.0 W/m2 CLR
05:45 -7.1 °C -10.2 °C 34303.6 hPa Calm     70 % 0 mm 0.0 W/m2 CLR
05:50 -7.1 °C -10.2 °C 34303.6 hPa Calm     70 % 0 mm 0.0 W/m2 CLR
05:55 -7.1 °C -10.2 °C 34303.6 hPa Calm     70 % 0 mm 0.0 W/m2 CLR
06:00 -7 °C -10.2 °C 34303.6 hPa Calm     69 % 0 mm 0.0 W/m2 CLR
06:05 -6.8 °C -10.1 °C 34313.7 hPa WSW 9 km/h 9 km/h 69 % 0 mm 0.0 W/m2 CLR
06:06 -6.8 °C -10.1 °C 34313.7 hPa WSW 9 km/h 9 km/h 69 % 0 mm 0.0 W/m2 CLR
06:11 -6.8 °C -10.1 °C 34313.7 hPa WSW 9 km/h 9 km/h 68 % 0 mm 0.0 W/m2 CLR
06:16 -6.7 °C -10.2 °C 34313.7 hPa WSW 9 km/h 9 km/h 67 % 0 mm 0.0 W/m2 CLR
06:21 -6.6 °C -10.2 °C 34313.7 hPa Calm     67 % 0 mm 0.0 W/m2 OVC
06:26 -6.6 °C -10.2 °C 34313.7 hPa Calm     67 % 0 mm 0.0 W/m2 OVC
06:31 -6.6 °C -10.2 °C 34313.7 hPa Calm     67 % 0 mm 5.0 W/m2 OVC
06:36 -6.7 °C -10.1 °C 34327.3 hPa Calm     68 % 0 mm 9.0 W/m2 BKN
06:41 -6.9 °C -10.1 °C 34327.3 hPa Calm     69 % 0 mm 12.0 W/m2 BKN
06:46 -7 °C -10.1 °C 34327.3 hPa Calm     70 % 0 mm 16.0 W/m2 BKN
06:51 -7.1 °C -10.1 °C 34327.3 hPa Calm     71 % 0 mm 21.0 W/m2 BKN
06:56 -7.2 °C -10.2 °C 34327.3 hPa Calm     71 % 0 mm 25.0 W/m2 BKN
07:01 -7.1 °C -10 °C 34327.3 hPa Calm     72 % 0 mm 30.0 W/m2 BKN
07:06 -6.9 °C -9.9 °C 34327.3 hPa SSW 9 km/h 9 km/h 71 % 0 mm 39.0 W/m2 BKN
07:11 -6.7 °C -9.9 °C 34327.3 hPa SSW 3.1 km/h 3.1 km/h 69 % 0 mm 46.0 W/m2 SCT
07:16 -6.6 °C -9.9 °C 34327.3 hPa SSW 9 km/h 9 km/h 69 % 0 mm 56.0 W/m2 SCT
07:21 -6.4 °C -9.8 °C 34327.3 hPa SW 10.3 km/h 10.3 km/h 68 % 0 mm 67.0 W/m2 FEW
07:26 -6.2 °C -9.7 °C 34337.4 hPa Calm     67 % 0 mm 81.0 W/m2 FEW
07:31 -6.1 °C -9.6 °C 34337.4 hPa Calm     67 % 0 mm 95.0 W/m2 FEW
07:36 -6 °C -9.7 °C 34337.4 hPa Calm     66 % 0 mm 109.0 W/m2 CLR
07:41 -6 °C -9.7 °C 34337.4 hPa Calm     66 % 0 mm 125.0 W/m2 CLR
07:46 -6 °C -9.7 °C 34347.6 hPa Calm     66 % 0 mm 141.0 W/m2 CLR
07:51 -5.9 °C -9.6 °C 34347.6 hPa Calm     66 % 0 mm 163.0 W/m2 CLR
07:56 -5.8 °C -9.6 °C 34347.6 hPa Calm     65 % 0 mm 163.0 W/m2 CLR
08:01 -5.6 °C -9.6 °C 34347.6 hPa Calm     64 % 0 mm 178.0 W/m2 CLR
08:06 -5.4 °C -9.5 °C 34347.6 hPa Calm     63 % 0 mm 220.0 W/m2 CLR
08:11 -5.2 °C -9.4 °C 34347.6 hPa Calm     62 % 0 mm 230.0 W/m2 CLR
08:16 -4.9 °C -9.4 °C 34347.6 hPa Calm     61 % 0 mm 216.0 W/m2 CLR
08:21 -4.8 °C -9.4 °C 34361.1 hPa Calm     60 % 0 mm 221.0 W/m2 CLR
08:26 -4.7 °C -9.3 °C 34361.1 hPa Calm     60 % 0 mm 218.0 W/m2 CLR
08:31 -4.6 °C -9.2 °C 34361.1 hPa Calm     60 % 0 mm 246.0 W/m2 CLR
08:36 -4.4 °C -9.1 °C 34361.1 hPa Calm     59 % 0 mm 250.0 W/m2 CLR
08:41 -4.3 °C -9.1 °C 34361.1 hPa Calm     58 % 0 mm 241.0 W/m2 CLR
08:46 -4.1 °C -9.2 °C 34361.1 hPa Calm     57 % 0 mm 265.0 W/m2 CLR
08:51 -3.9 °C -9.2 °C 34361.1 hPa Calm     56 % 0 mm 274.0 W/m2 CLR
08:56 -3.8 °C -9.2 °C 34361.1 hPa Calm     55 % 0 mm 294.0 W/m2 CLR
09:01 -3.7 °C -9.3 °C 34361.1 hPa Calm     54 % 0 mm 285.0 W/m2 CLR
09:06 -3.6 °C -9.2 °C 34361.1 hPa Calm     54 % 0 mm 323.0 W/m2 CLR
09:11 -3.4 °C -9.7 °C 34361.1 hPa NW 20.9 km/h 20.9 km/h 50 % 0 mm 329.0 W/m2 CLR
09:16 -3.4 °C -9.8 °C 34361.1 hPa WNW 17.9 km/h 17.9 km/h 49 % 0 mm 311.0 W/m2 CLR
09:21 -3.3 °C -9.6 °C 34361.1 hPa West 20.9 km/h 20.9 km/h 50 % 0 mm 309.0 W/m2 CLR
09:26 -3.3 °C -9.7 °C 34371.3 hPa WSW 15 km/h 15 km/h 49 % 0 mm 350.0 W/m2 CLR
09:31 -3.2 °C -9.6 °C 34371.3 hPa NW 9 km/h 9 km/h 49 % 0 mm 411.0 W/m2 CLR
09:36 -3.1 °C -9.7 °C 34371.3 hPa SW 9 km/h 9 km/h 48 % 0 mm 431.0 W/m2 CLR
09:42 -2.9 °C -9.6 °C 34371.3 hPa WSW 10.3 km/h 10.3 km/h 48 % 0 mm 485.0 W/m2 CLR
09:47 -2.9 °C -9.9 °C 34371.3 hPa WSW 17.9 km/h 17.9 km/h 46 % 0 mm 519.0 W/m2 CLR
09:52 -2.9 °C -10.3 °C 34371.3 hPa West 17.9 km/h 17.9 km/h 44 % 0 mm 529.0 W/m2 CLR
09:57 -2.8 °C -10.2 °C 34384.8 hPa NW 11.9 km/h 11.9 km/h 44 % 0 mm 531.0 W/m2 CLR
10:02 -2.7 °C -10.1 °C 34384.8 hPa Calm     44 % 0 mm 517.0 W/m2 CLR
10:07 -2.5 °C -10.1 °C 34371.3 hPa WSW 9 km/h 9 km/h 43 % 0 mm 547.0 W/m2 CLR
10:12 -2.4 °C -10.1 °C 34371.3 hPa WSW 15 km/h 15 km/h 43 % 0 mm 547.0 W/m2 CLR
10:17 -2.4 °C -10 °C 34384.8 hPa Calm   3.9 km/h 43 % 0 mm 603.0 W/m2 CLR
10:22 -2.3 °C -10.1 °C 34371.3 hPa WNW 17.9 km/h   42 % 0 mm 592.0 W/m2 CLR
10:27 -2.2 °C -10 °C 34371.3 hPa NNW 3.1 km/h   42 % 0 mm 596.0 W/m2 CLR
10:32 -1.9 °C -9.8 °C 34371.3 hPa NW 6 km/h 6 km/h 42 % 0 mm 613.0 W/m2 CLR
10:37 -1.8 °C -9.9 °C 34371.3 hPa Calm     41 % 0 mm 619.0 W/m2 CLR
10:42 -1.7 °C -9.8 °C 34384.8 hPa NNW 23.8 km/h 23.8 km/h 41 % 0 mm 545.0 W/m2 CLR
10:47 -1.7 °C -9.8 °C 34371.3 hPa WNW 15 km/h 15 km/h 41 % 0 mm 650.0 W/m2 CLR
10:52 -1.6 °C -9.9 °C 34371.3 hPa NNW 3.1 km/h   40 % 0 mm 661.0 W/m2 CLR
10:57 -1.6 °C -9.9 °C 34384.8 hPa WNW 17.9 km/h 17.9 km/h 40 % 0 mm 570.0 W/m2 CLR
11:02 -1.6 °C -9.9 °C 34384.8 hPa NW 15 km/h 15 km/h 40 % 0 mm 705.0 W/m2 CLR
11:07 -1.6 °C -9.9 °C 34384.8 hPa North 3.1 km/h   40 % 0 mm 534.0 W/m2 CLR
11:12 -1.4 °C -9.9 °C 34384.8 hPa WSW 3.1 km/h   39 % 0 mm 631.0 W/m2 CLR
11:17 -1.3 °C -9.9 °C 34384.8 hPa NW 11.9 km/h 11.9 km/h 39 % 0 mm 745.0 W/m2 CLR
11:22 -1.3 °C -9.9 °C 34384.8 hPa NNW 9 km/h 9 km/h 39 % 0 mm 640.0 W/m2 CLR
11:27 -1.3 °C -9.9 °C 34384.8 hPa NW 18.2 km/h 18.2 km/h 39 % 0 mm 768.0 W/m2 CLR
11:32 -1.3 °C -9.9 °C 34384.8 hPa NNW 11.9 km/h 11.9 km/h 39 % 0 mm 814.0 W/m2 CLR
11:37 -1.2 °C -9.8 °C 34384.8 hPa Calm     39 % 0 mm 791.0 W/m2 CLR
11:42 -1.3 °C -10.1 °C 34384.8 hPa Calm     38 % 0 mm 334.0 W/m2 CLR
11:47 -1.2 °C -9.9 °C 34384.8 hPa Calm     38 % 0 mm 642.0 W/m2 CLR
11:52 -1.1 °C -9.9 °C 34384.8 hPa NNE 9 km/h 9 km/h 38 % 0 mm 555.0 W/m2 CLR
11:57 -0.9 °C -9.7 °C 34384.8 hPa Calm     38 % 0 mm 775.0 W/m2 CLR
12:02 -0.8 °C -9.8 °C 34384.8 hPa Calm     37 % 0 mm 837.0 W/m2 CLR
12:07 -0.7 °C -9.8 °C 34384.8 hPa Calm     37 % 0 mm 831.0 W/m2 CLR
12:12 -0.4 °C -9.8 °C 34384.8 hPa NNW 3.1 km/h 3.1 km/h 36 % 0 mm 810.0 W/m2 CLR
12:17 -0.4 °C -9.8 °C 34384.8 hPa Calm     36 % 0 mm 847.0 W/m2 CLR
12:22 -0.4 °C -9.5 °C 34384.8 hPa NNE 9 km/h 9 km/h 37 % 0 mm 853.0 W/m2 CLR
12:27 -0.2 °C -9.6 °C 34384.8 hPa Calm     36 % 0 mm 860.0 W/m2 CLR
12:32 -0.1 °C -9.7 °C 34384.8 hPa Calm     35 % 0 mm 830.0 W/m2 CLR
12:37 -0.1 °C -9.5 °C 34384.8 hPa Calm     36 % 0 mm 849.0 W/m2 CLR
12:42 -0.1 °C -9.2 °C 34384.8 hPa ENE 3.1 km/h 3.1 km/h 37 % 0 mm 856.0 W/m2 CLR
12:47 0.2 °C -9.5 °C 34384.8 hPa NNW 5.1 km/h 5.1 km/h 35 % 0 mm 846.0 W/m2 CLR
12:52 0.1 °C -9.3 °C 34384.8 hPa Calm     36 % 0 mm 886.0 W/m2 CLR
12:57 0.2 °C -9.2 °C 34384.8 hPa NE 20.9 km/h 20.9 km/h 36 % 0 mm 872.0 W/m2 CLR
13:02 0.3 °C -9.2 °C 34384.8 hPa Calm     36 % 0 mm 944.0 W/m2 CLR
13:07 0.3 °C -9.4 °C 34384.8 hPa ENE 11.9 km/h 11.9 km/h 35 % 0 mm 800.0 W/m2 CLR
13:12 0.3 °C -9.2 °C 34384.8 hPa East 15 km/h 15 km/h 36 % 0 mm 861.0 W/m2 CLR
13:17 0.2 °C -9.4 °C 34371.3 hPa ENE 9 km/h 9 km/h 35 % 0 mm 849.0 W/m2 CLR
13:22 0.2 °C -9.4 °C 34371.3 hPa NE 15 km/h 15 km/h 35 % 0 mm 875.0 W/m2 CLR
13:27 0.3 °C -9.3 °C 34371.3 hPa ESE 9 km/h 9 km/h 35 % 0 mm 886.0 W/m2 CLR
13:32 0.4 °C -9.3 °C 34371.3 hPa ENE 9 km/h   35 % 0 mm 865.0 W/m2 CLR
13:37 0.4 °C -9 °C 34371.3 hPa NNE 15 km/h 15 km/h 36 % 0 mm 891.0 W/m2 CLR
13:42 0.6 °C -9.2 °C 34371.3 hPa ENE 15.6 km/h 15.6 km/h 35 % 0 mm 893.0 W/m2 CLR
13:47 0.4 °C -9.3 °C 34371.3 hPa East 3.1 km/h 3.1 km/h 35 % 0 mm 909.0 W/m2 CLR
13:52 0.6 °C -9.4 °C 34371.3 hPa East 12.9 km/h 12.9 km/h 34 % 0 mm 914.0 W/m2 CLR
13:57 0.7 °C -9.1 °C 34371.3 hPa Calm   1.6 km/h 35 % 0 mm 916.0 W/m2 CLR
14:02 0.8 °C -9 °C 34371.3 hPa ENE 2.6 km/h   35 % 0 mm 756.0 W/m2 CLR
14:07 0.8 °C -9.2 °C 34371.3 hPa Calm     34 % 0 mm 926.0 W/m2 CLR
14:12 0.9 °C -9.4 °C 34371.3 hPa NE 10.3 km/h 10.3 km/h 33 % 0 mm 900.0 W/m2 CLR
14:17 0.9 °C -9.4 °C 34361.1 hPa Calm     33 % 0 mm 807.0 W/m2 CLR
14:22 0.9 °C -9.1 °C 34361.1 hPa NE 9 km/h   34 % 0 mm 745.0 W/m2 CLR
14:27 1 °C -9 °C 34361.1 hPa Calm     34 % 0 mm 854.0 W/m2 CLR
14:32 1.2 °C -8.9 °C 34361.1 hPa NNW 17.9 km/h 17.9 km/h 34 % 0 mm 796.0 W/m2 CLR
14:33 1.2 °C -8.9 °C 34361.1 hPa NW 17.9 km/h 17.9 km/h 34 % 0 mm 796.0 W/m2 CLR
14:38 1.2 °C -9.1 °C 34361.1 hPa NW 15 km/h 15 km/h 33 % 0 mm 849.0 W/m2 CLR
14:43 1.3 °C -9.1 °C 34361.1 hPa Calm     33 % 0 mm 849.0 W/m2 CLR
14:48 1.6 °C -9.1 °C 34347.6 hPa ENE 2.6 km/h   32 % 0 mm 891.0 W/m2 CLR
14:53 1.8 °C -9.2 °C 34347.6 hPa NE 9 km/h 9 km/h 31 % 0 mm 911.0 W/m2 CLR
14:58 1.8 °C -9.2 °C 34347.6 hPa Calm     31 % 0 mm 867.0 W/m2 CLR
15:03 1.8 °C -9.2 °C 34347.6 hPa NE 15 km/h 15 km/h 31 % 0 mm 868.0 W/m2 CLR
15:08 1.8 °C -9.1 °C 34347.6 hPa Calm     31 % 0 mm 904.0 W/m2 CLR
15:13 1.9 °C -9 °C 34347.6 hPa ENE 3.1 km/h   31 % 0 mm 949.0 W/m2 CLR
15:18 1.8 °C -9.1 °C 34347.6 hPa Calm     31 % 0 mm 916.0 W/m2 CLR
15:23 1.8 °C -9.4 °C 34337.4 hPa Calm     30 % 0 mm 932.0 W/m2 CLR
15:28 1.8 °C -9.4 °C 34337.4 hPa North 12.9 km/h 12.9 km/h 30 % 0 mm 946.0 W/m2 CLR
15:33 1.9 °C -9.3 °C 34337.4 hPa NNW 12.9 km/h 12.9 km/h 30 % 0 mm 993.0 W/m2 CLR
15:38 2.1 °C -9.4 °C 34337.4 hPa WNW 10.3 km/h 10.3 km/h 29 % 0 mm 747.0 W/m2 CLR
15:43 2.1 °C -9.5 °C 34337.4 hPa West 9 km/h 9 km/h 29 % 0 mm 599.0 W/m2 CLR
15:48 2.1 °C -9.5 °C 34337.4 hPa WNW 9 km/h 9 km/h 29 % 0 mm 673.0 W/m2 CLR
15:53 2.2 °C -9.4 °C 34337.4 hPa WNW 10.3 km/h 10.3 km/h 29 % 0 mm 606.0 W/m2 CLR
15:58 2.2 °C -9.3 °C 34337.4 hPa Calm     29 % 0 mm 615.0 W/m2 CLR
16:03 2.2 °C -9.4 °C 34337.4 hPa Calm     29 % 0 mm 392.0 W/m2 CLR
16:08 2.1 °C -9.4 °C 34337.4 hPa Calm     29 % 0 mm 343.0 W/m2 CLR
16:13 2 °C -9.6 °C 34337.4 hPa Calm     29 % 0 mm 302.0 W/m2 CLR
16:18 2 °C -9.6 °C 34337.4 hPa Calm     29 % 0 mm 279.0 W/m2 CLR
16:23 2 °C -9.2 °C 34327.3 hPa NNE 3.1 km/h 3.1 km/h 30 % 0 mm 262.0 W/m2 CLR
16:28 2.1 °C -9.2 °C 34327.3 hPa NNW 9 km/h 9 km/h 30 % 0 mm 244.0 W/m2 CLR
16:33 1.9 °C -9.3 °C 34327.3 hPa Calm     30 % 0 mm 218.0 W/m2 CLR
16:38 1.8 °C -9.1 °C 34327.3 hPa NNW 11.9 km/h 11.9 km/h 31 % 0 mm 174.0 W/m2 CLR
16:43 1.6 °C -9.3 °C 34327.3 hPa North 15 km/h 15 km/h 31 % 0 mm 139.0 W/m2 CLR
16:48 1.4 °C -9.2 °C 34327.3 hPa North 15.6 km/h 15.6 km/h 32 % 0 mm 113.0 W/m2 CLR
16:53 1.3 °C -9.1 °C 34337.4 hPa WNW 15.6 km/h 15.6 km/h 33 % 0 mm 100.0 W/m2 CLR
16:58 1.2 °C -9.2 °C 34337.4 hPa NNW 11.9 km/h 11.9 km/h 33 % 0 mm 95.0 W/m2 CLR
17:03 1 °C -9.1 °C 34337.4 hPa WNW 20.8 km/h 20.8 km/h 34 % 0 mm 100.0 W/m2 CLR
17:08 0.9 °C -9.1 °C 34347.6 hPa NW 20.9 km/h 20.9 km/h 34 % 0 mm 111.0 W/m2 CLR
17:13 0.9 °C -9.1 °C 34347.6 hPa WNW 20.9 km/h 20.9 km/h 34 % 0 mm 123.0 W/m2 CLR
17:16 0.9 °C -9.1 °C 34347.6 hPa WNW 17.9 km/h 17.9 km/h 34 % 0 mm 134.0 W/m2 CLR
17:26 0.8 °C -8.9 °C 34347.6 hPa WNW 11.9 km/h 11.9 km/h 35 % 0 mm 174.0 W/m2 CLR
17:31 0.8 °C -8.9 °C 34347.6 hPa West 17.9 km/h 17.9 km/h 35 % 0 mm 186.0 W/m2 CLR
17:36 0.8 °C -8.7 °C 34347.6 hPa West 23.8 km/h 23.8 km/h 36 % 0 mm 190.0 W/m2 CLR
17:41 0.8 °C -8.9 °C 34347.6 hPa West 29.8 km/h 29.8 km/h 35 % 0 mm 183.0 W/m2 CLR
17:46 0.8 °C -8.9 °C 34347.6 hPa WSW 15.6 km/h 15.6 km/h 35 % 0 mm 174.0 W/m2 CLR
17:51 0.8 °C -8.9 °C 34347.6 hPa WSW 20.8 km/h 20.8 km/h 35 % 0 mm 167.0 W/m2 CLR
17:56 0.8 °C -8.9 °C 34347.6 hPa West 12.9 km/h 12.9 km/h 35 % 0 mm 156.0 W/m2 CLR
18:01 0.8 °C -8.9 °C 34347.6 hPa West 26.9 km/h 26.9 km/h 35 % 0 mm 148.0 W/m2 CLR
18:06 0.8 °C -8.9 °C 34347.6 hPa West 18.2 km/h 18.2 km/h 35 % 0 mm 144.0 W/m2 CLR
18:12 0.7 °C -9 °C 34347.6 hPa WSW 17.9 km/h 17.9 km/h 35 % 0 mm 144.0 W/m2 CLR
18:17 0.7 °C -8.8 °C 34347.6 hPa WSW 9 km/h 9 km/h 36 % 0 mm 144.0 W/m2 CLR
18:22 0.7 °C -9.1 °C 34347.6 hPa West 11.9 km/h 11.9 km/h 35 % 0 mm 142.0 W/m2 CLR
18:27 0.7 °C -8.8 °C 34347.6 hPa SW 15 km/h 15 km/h 36 % 0 mm 139.0 W/m2 CLR
18:32 0.7 °C -8.8 °C 34337.4 hPa Calm     36 % 0 mm 137.0 W/m2 CLR
18:37 0.6 °C -8.8 °C 34337.4 hPa Calm     36 % 0 mm 137.0 W/m2 CLR
18:42 0.6 °C -9.1 °C 34337.4 hPa Calm     35 % 0 mm 132.0 W/m2 CLR
18:47 0.6 °C -9.1 °C 34327.3 hPa Calm     35 % 0 mm 128.0 W/m2 CLR
18:52 0.6 °C -8.9 °C 34327.3 hPa Calm     36 % 0 mm 123.0 W/m2 CLR
18:57 0.6 °C -8.9 °C 34327.3 hPa Calm     36 % 0 mm 118.0 W/m2 CLR
19:02 0.6 °C -9.1 °C 34327.3 hPa Calm     35 % 0 mm 109.0 W/m2 CLR
19:07 0.6 °C -8.9 °C 34327.3 hPa Calm     36 % 0 mm 98.0 W/m2 CLR
19:12 0.6 °C -8.9 °C 34327.3 hPa Calm     36 % 0 mm 91.0 W/m2 CLR
19:17 0.6 °C -8.9 °C 34337.4 hPa Calm     36 % 0 mm 88.0 W/m2 CLR
19:19 0.6 °C -8.9 °C 34337.4 hPa Calm     36 % 0 mm 88.0 W/m2 CLR
19:24 0.5 °C -9.2 °C 34337.4 hPa Calm     35 % 0 mm 86.0 W/m2 CLR
19:29 0.5 °C -9.5 °C 34337.4 hPa Calm     34 % 0 mm 88.0 W/m2 CLR
19:34 0.5 °C -9.7 °C 34337.4 hPa Calm     33 % 0 mm 90.0 W/m2 CLR
19:39 0.5 °C -9.5 °C 34347.6 hPa Calm     34 % 0 mm 86.0 W/m2 CLR
19:44 0.4 °C -9.8 °C 34347.6 hPa Calm     33 % 0 mm 79.0 W/m2 CLR
19:50 0.4 °C -10.1 °C 34347.6 hPa Calm     32 % 0 mm 72.0 W/m2 FEW
19:55 0.4 °C -10.1 °C 34337.4 hPa Calm     32 % 0 mm 65.0 W/m2 FEW
20:00 0.4 °C -9.3 °C 34347.6 hPa Calm     35 % 0 mm 63.0 W/m2 FEW
20:05 0.4 °C -9.6 °C 34347.6 hPa Calm     34 % 0 mm 63.0 W/m2 SCT
20:10 0.3 °C -9.1 °C 34347.6 hPa Calm     36 % 0 mm 63.0 W/m2 SCT
20:15 0.2 °C -9 °C 34347.6 hPa Calm     37 % 0 mm 60.0 W/m2 SCT
20:20 0.1 °C -8.8 °C 34347.6 hPa Calm     38 % 0 mm 54.0 W/m2 SCT
20:25 -0.1 °C -9.4 °C 34347.6 hPa Calm     36 % 0 mm 49.0 W/m2 SCT
20:30 -0.1 °C -8.8 °C 34361.1 hPa Calm     39 % 0 mm 44.0 W/m2 SCT
20:35 -0.2 °C -9.1 °C 34361.1 hPa Calm     38 % 0 mm 37.0 W/m2 BKN
20:40 -0.2 °C -9.4 °C 34361.1 hPa Calm     37 % 0 mm 32.0 W/m2 BKN
20:45 -0.3 °C -9.5 °C 34361.1 hPa Calm     37 % 0 mm 25.0 W/m2 BKN
20:50 -0.4 °C -8.9 °C 34371.3 hPa Calm     40 % 0 mm 21.0 W/m2 BKN
20:55 -0.5 °C -9.4 °C 34371.3 hPa Calm     38 % 0 mm 16.0 W/m2 BKN
21:00 -0.6 °C -9.2 °C 34371.3 hPa Calm     39 % 0 mm 12.0 W/m2 BKN
21:05 -0.7 °C -9.6 °C 34371.3 hPa Calm     38 % 0 mm 9.0 W/m2 BKN
21:10 -0.7 °C -9.6 °C 34384.8 hPa Calm     38 % 0 mm 7.0 W/m2 BKN
21:15 -0.8 °C -9.2 °C 34384.8 hPa Calm     40 % 0 mm 5.0 W/m2 OVC
21:20 -0.9 °C -9.3 °C 34384.8 hPa Calm     40 % 0 mm 0.0 W/m2 OVC
21:25 -1 °C -9.4 °C 34384.8 hPa Calm     40 % 0 mm 0.0 W/m2 OVC
21:30 -1.1 °C -9.1 °C 34395 hPa Calm     42 % 0 mm 0.0 W/m2 OVC
21:35 -1.3 °C -9.2 °C 34395 hPa Calm     42 % 0 mm 0.0 W/m2 OVC
21:40 -1.4 °C -9.3 °C 34405.1 hPa Calm     42 % 0 mm 0.0 W/m2 OVC
21:45 -1.5 °C -8.8 °C 34405.1 hPa Calm     45 % 0 mm 0.0 W/m2 CLR
21:50 -1.7 °C -9 °C 34405.1 hPa Calm     45 % 0 mm 0.0 W/m2 CLR
21:55 -1.9 °C -9 °C 34418.7 hPa Calm     46 % 0 mm 0.0 W/m2 CLR
22:00 -2.1 °C -9.3 °C 34418.7 hPa Calm     45 % 0 mm 0.0 W/m2 CLR
22:05 -2.1 °C -9.3 °C 34442.4 hPa WNW 41.4 km/h 41.4 km/h 45 % 0 mm 0.0 W/m2 CLR
22:07 -1.8 °C -9.3 °C 34442.4 hPa NW 44.7 km/h 44.7 km/h 44 % 0 mm 0.0 W/m2 CLR
22:12 -1.5 °C -8.8 °C 34442.4 hPa NW 17.9 km/h 17.9 km/h 45 % 0 mm 0.0 W/m2 CLR
22:17 -1.5 °C -8.6 °C 34442.4 hPa WNW 15 km/h 15 km/h 46 % 0 mm 0.0 W/m2 CLR
22:22 -1.6 °C -8.3 °C 34452.6 hPa NW 15 km/h 15 km/h 48 % 0 mm 0.0 W/m2 CLR
22:27 -1.7 °C -8.2 °C 34452.6 hPa WNW 20.9 km/h 20.9 km/h 49 % 0 mm 0.0 W/m2 CLR
22:32 -1.7 °C -8.1 °C 34452.6 hPa NW 9 km/h 9 km/h 50 % 0 mm 0.0 W/m2 CLR
22:37 -1.8 °C -8 °C 34462.7 hPa NW 11.9 km/h 11.9 km/h 51 % 0 mm 0.0 W/m2 CLR
22:42 -1.9 °C -7.9 °C 34462.7 hPa NW 9 km/h 9 km/h 52 % 0 mm 0.0 W/m2 CLR
22:47 -1.9 °C -7.9 °C 34462.7 hPa Calm     52 % 0 mm 0.0 W/m2 CLR
22:52 -1.9 °C -7.8 °C 34462.7 hPa Calm     53 % 0 mm 0.0 W/m2 CLR
22:57 -2 °C -7.8 °C 34462.7 hPa Calm     53 % 0 mm 0.0 W/m2 CLR
23:02 -2.1 °C -7.9 °C 34462.7 hPa Calm     53 % 0 mm 0.0 W/m2 CLR
23:07 -2.1 °C -7.7 °C 34476.3 hPa Calm     54 % 0 mm 0.0 W/m2 CLR
23:12 -2.2 °C -7.8 °C 34462.7 hPa Calm     54 % 0 mm 0.0 W/m2 CLR
23:17 -2.3 °C -7.9 °C 34462.7 hPa Calm     54 % 0 mm 0.0 W/m2 CLR
23:22 -2.3 °C -7.9 °C 34462.7 hPa Calm     54 % 0 mm 0.0 W/m2 CLR
23:27 -2.4 °C -8 °C 34462.7 hPa Calm     54 % 0 mm 0.0 W/m2 CLR
23:32 -2.4 °C -8.1 °C 34462.7 hPa Calm     54 % 0 mm 0.0 W/m2 CLR
23:37 -2.5 °C -8.1 °C 34462.7 hPa Calm     54 % 0 mm 0.0 W/m2 CLR
23:42 -2.6 °C -8.1 °C 34462.7 hPa Calm     55 % 0 mm 0.0 W/m2 CLR
23:47 -2.7 °C -8.1 °C 34476.3 hPa Calm     56 % 0 mm 0.0 W/m2 CLR
23:52 -2.8 °C -8.1 °C 34476.3 hPa Calm     56 % 0 mm 0.0 W/m2 CLR
23:57 -2.8 °C -8.1 °C 34476.3 hPa Calm     56 % 0 mm 0.0 W/m2 CLR
Lo Temps de Massalio
Compliments of Weather Underground - 1.25 mb